Tracking 19634 objects as of 22-May-2019
HD Live streaming from Space Station
objects crossing your sky now

EKRAN 15

Track EKRAN 15 now!
EKRAN 15 is classified as:


NORAD ID: 16729
Int'l Code: 1986-038A
Perigee: 36,814.6 km
Apogee: 36,928.7 km
Inclination: 15.4 °
Period: 1,491.5 minutes
Semi major axis: 43242 km
RCS: 5.2216 m2 (large)
Launch date: May 24, 1986
Source: Commonwealth of Independent States (former USSR) (CIS)
Launch site: TYURATAM MISSILE AND SPACE COMPLEX (TTMTR)
aabbcc
Your satellite tracking list
Your tracking list is empty




NASA's NSSDC Master Catalog

Two Line Element Set (TLE):
1 16729U 86038A   19141.01315035 -.00000115  00000-0  00000+0 0  9991
2 16729  15.3520 342.8018 0013184 332.9685 213.7653  0.96546076 93396
Source of the keplerian elements: AFSPC